TimeAKDT,TemperatureF,Dew PointF,Humidity,Sea Level PressureIn,VisibilityMPH,Wind Direction,Wind SpeedMPH,Gust SpeedMPH,PrecipitationIn,Events,Conditions,WindDirDegrees,DateUTC
12:41 AM,12.2,10.4,92,29.46,0.1,West,38.0,44.9,0.07,Fog-Snow,Snow,260,2013-05-14 08:41:00
12:53 AM,12.0,9.0,88,29.47,0.1,WSW,39.1,44.9,0.07,Fog-Snow,Snow,250,2013-05-14 08:53:00
1:05 AM,12.2,8.6,85,29.48,0.1,WSW,36.8,43.7,0.00,Fog-Snow,Snow,250,2013-05-14 09:05:00
1:53 AM,10.9,8.1,88,29.51,0.1,WSW,39.1,46.0,0.01,Fog-Snow,Light Snow,250,2013-05-14 09:53:00
2:53 AM,10.0,7.0,87,29.55,0.1,WSW,36.8,43.7,0.00,Fog-Snow,Light Snow,250,2013-05-14 10:53:00
3:53 AM,9.0,6.1,88,29.59,0.1,WSW,36.8,41.4,0.00,Fog-Snow,Light Snow,250,2013-05-14 11:53:00
4:16 AM,8.6,5.0,85,29.59,0.1,WSW,32.2,46.0,0.00,Fog-Snow,Light Snow,250,2013-05-14 12:16:00
4:23 AM,8.6,5.0,85,29.60,0.2,WSW,36.8,42.6,0.00,Fog-Snow,Light Snow,250,2013-05-14 12:23:00
4:53 AM,8.1,5.0,87,29.62,0.1,West,36.8,42.6,0.00,Fog-Snow,Light Snow,260,2013-05-14 12:53:00
5:12 AM,8.6,5.0,85,29.61,0.1,West,35.7,44.9,0.00,Fog-Snow,Light Snow,260,2013-05-14 13:12:00
5:15 AM,6.8,3.2,85,29.61,0.2,West,36.8,44.9,0.00,Fog-Snow,Light Snow,260,2013-05-14 13:15:00
5:30 AM,6.8,3.2,85,29.62,0.2,West,33.4,41.4,0.00,Fog-Snow,Light Snow,260,2013-05-14 13:30:00
5:53 AM,7.0,3.9,87,29.64,0.2,WSW,31.1,39.1,0.00,Fog-Snow,Light Snow,250,2013-05-14 13:53:00
6:07 AM,6.8,3.2,85,29.64,0.5,West,28.8,35.7,0.00,Fog-Snow,Light Snow,260,2013-05-14 14:07:00
6:30 AM,6.8,3.2,85,29.65,0.2,West,27.6,-,0.00,Fog-Snow,Light Snow,260,2013-05-14 14:30:00
6:53 AM,7.0,3.9,87,29.66,0.2,WSW,31.1,-,0.00,Fog-Snow,Light Snow,250,2013-05-14 14:53:00
7:53 AM,8.1,3.9,83,29.68,0.5,West,27.6,-,0.00,Fog-Snow,Light Snow,260,2013-05-14 15:53:00
8:20 AM,8.6,3.2,79,29.68,0.8,West,25.3,-,0.00,Fog-Snow,Light Snow,260,2013-05-14 16:20:00
8:53 AM,9.0,5.0,84,29.69,0.8,West,27.6,-,0.00,Fog-Snow,Light Snow,260,2013-05-14 16:53:00
9:00 AM,8.6,5.0,85,29.68,0.8,West,26.5,-,0.00,Fog-Snow,Light Snow,260,2013-05-14 17:00:00
9:53 AM,9.0,5.0,84,29.70,0.8,West,26.5,-,0.00,Fog-Snow,Light Snow,260,2013-05-14 17:53:00
10:33 AM,10.4,5.0,79,29.70,1.5,WSW,19.6,-,0.00,Snow,Light Snow,240,2013-05-14 18:33:00
10:45 AM,10.4,5.0,79,29.70,0.5,WSW,27.6,32.2,0.00,Snow,Snow,250,2013-05-14 18:45:00
10:53 AM,10.0,5.0,80,29.71,1.0,WSW,25.3,-,0.00,Snow,Light Snow,250,2013-05-14 18:53:00
11:53 AM,10.9,6.1,81,29.70,3.0,WSW,18.4,-,0.00,,Overcast,250,2013-05-14 19:53:00
12:23 PM,12.2,6.8,79,29.69,2.0,WSW,23.0,-,0.00,Snow,Light Snow,240,2013-05-14 20:23:00
12:53 PM,12.9,8.1,81,29.70,1.0,WSW,26.5,-,0.00,Snow,Light Snow,250,2013-05-14 20:53:00
1:09 PM,12.2,6.8,79,29.69,2.0,WSW,24.2,-,0.00,Snow,Light Snow,250,2013-05-14 21:09:00
1:21 PM,12.2,6.8,79,29.69,3.0,WSW,25.3,-,0.00,Snow,Light Snow,250,2013-05-14 21:21:00
1:53 PM,12.9,6.1,74,29.70,2.0,West,25.3,-,0.00,Snow,Light Snow,260,2013-05-14 21:53:00
2:53 PM,12.0,6.1,77,29.70,3.0,West,21.9,-,0.00,Snow,Light Snow,260,2013-05-14 22:53:00
2:57 PM,12.2,6.8,79,29.70,1.8,West,23.0,-,0.00,Snow,Light Snow,260,2013-05-14 22:57:00
2:59 PM,12.2,6.8,79,29.70,3.0,WSW,20.7,-,0.00,Snow,Light Snow,250,2013-05-14 22:59:00
3:53 PM,12.9,6.1,74,29.70,7.0,WSW,17.3,-,0.00,,Overcast,250,2013-05-14 23:53:00
4:53 PM,12.9,6.1,74,29.70,10.0,SW,16.1,-,0.00,,Mostly Cloudy,230,2013-05-15 00:53:00
5:53 PM,12.9,5.0,71,29.71,10.0,WSW,16.1,-,N/A,,Overcast,250,2013-05-15 01:53:00
6:53 PM,12.9,5.0,71,29.71,10.0,West,15.0,-,N/A,,Scattered Clouds,260,2013-05-15 02:53:00
7:53 PM,10.9,5.0,77,29.72,10.0,WSW,10.4,-,N/A,,Scattered Clouds,250,2013-05-15 03:53:00
8:53 PM,9.0,3.9,80,29.71,10.0,WSW,5.8,-,N/A,,Partly Cloudy,250,2013-05-15 04:53:00
9:53 PM,5.0,-0.0,80,29.70,10.0,South,6.9,-,N/A,,Scattered Clouds,170,2013-05-15 05:53:00
10:53 PM,1.9,-0.9,88,29.70,10.0,South,6.9,-,N/A,,Scattered Clouds,170,2013-05-15 06:53:00
11:53 PM,-0.0,-4.0,83,29.70,10.0,SSE,6.9,-,N/A,,Scattered Clouds,150,2013-05-15 07:53:00